Weather History for Ithaca, NY

Change the Weather History Date:

Tuesday, April 15, 2014

  Actual Average Record
Temperature  
Mean Temperature 43 °F -  
Max Temperature 61 °F 57 °F 84 °F (2003)
Min Temperature 25 °F 34 °F 18 °F (1926)
Degree Days  
Heating Degree Days 22    
Moisture  
Dew Point 38 °F    
Average Humidity 88    
Maximum Humidity 100    
Minimum Humidity 72    
Precipitation  
Precipitation 0.10 in - - ()
Sea Level Pressure  
Sea Level Pressure 29.73 in    
Wind  
Wind Speed 14 mph (NW)    
Max Wind Speed 24 mph    
Max Gust Speed 29 mph    
Visibility 6 miles    
Events Fog , Rain , Snow    
Averages and records for this station are not official NWS values.
T = Trace of Precipitation, MM = Missing Value Source: NWS Daily Summary

Daily Weather History Graph

Daily Weather History Graph

Search for Another Location

Airport:

Trip Planner

Search our weather history database for the weather conditions in past years. The results will help you decide how hot, cold, wet, or windy it might be!

Date:

Astronomy

Apr. 15, 2014 Rise Set
Actual Time 6:24 AM EDT 7:47 PM EDT
Civil Twilight 5:55 AM EDT 8:16 PM EDT
Nautical Twilight 5:20 AM EDT 8:52 PM EDT
Astronomical Twilight 4:43 AM EDT 9:29 PM EDT
Moon 8:27 PM EDT (4/15) 6:31 AM EDT (4/15)
Length of Visible Light 14h 21m
Length of Day
13h 22m
Full, 100% of the Moon is Illuminated
Apr 15
Full
Apr 22
Last Quarter
Apr 29
New
May 6
First Quarter
May 14
Full

Hourly Weather History & Observations

Time (EDT) Temp. Windchill Dew Point Humidity Pressure Visibility Wind Dir Wind Speed Gust Speed Precip Events Conditions
1:56 AM 59.0 °F - 55.9 °F 90% 29.66 in 10.0 mi South 8.1 mph - 0.00 in   Overcast
2:56 AM 57.9 °F - 55.9 °F 93% 29.63 in 10.0 mi SSE 10.4 mph - 0.00 in Rain Light Rain
3:56 AM 59.0 °F - 54.9 °F 86% 29.60 in 10.0 mi South 9.2 mph - 0.00 in   Partly Cloudy
4:56 AM 59.9 °F - 54.9 °F 83% 29.57 in 10.0 mi SSE 11.5 mph - 0.00 in Rain Light Rain
5:56 AM 59.9 °F - 55.9 °F 87% 29.55 in 10.0 mi SSE 11.5 mph - 0.00 in   Overcast
6:21 AM 60.8 °F - 55.4 °F 82% 29.55 in 10.0 mi SSE 10.4 mph - N/A   Mostly Cloudy
6:29 AM 60.8 °F - 55.4 °F 82% 29.54 in 10.0 mi SSE 9.2 mph - N/A   Mostly Cloudy
6:56 AM 59.9 °F - 55.9 °F 87% 29.53 in 10.0 mi SSE 13.8 mph 18.4 mph N/A   Mostly Cloudy
7:56 AM 59.9 °F - 56.8 °F 90% 29.51 in 10.0 mi South 15.0 mph - 0.00 in Rain Light Rain
8:48 AM 60.8 °F - 57.2 °F 88% 29.52 in 1.0 mi WNW 20.7 mph 25.3 mph 0.00 in Rain Light Rain
8:56 AM 52.0 °F - 47.8 °F 86% 29.53 in 0.5 mi NW 21.9 mph 25.3 mph 0.00 in Fog , Rain Light Rain
9:00 AM 48.2 °F - 46.4 °F 93% 29.54 in 0.8 mi NW 19.6 mph - 0.00 in Rain Light Rain
9:08 AM 44.6 °F 36.6 °F 42.8 °F 93% 29.55 in 1.0 mi NNW 19.6 mph 28.8 mph 0.00 in Rain Light Rain
9:15 AM 42.8 °F 34.3 °F 39.2 °F 87% 29.55 in 4.0 mi NNW 19.6 mph 27.6 mph 0.00 in Rain Light Rain
9:56 AM 36.9 °F 27.8 °F 36.0 °F 97% 29.60 in 3.0 mi NNW 15.0 mph 25.3 mph 0.04 in Rain Rain
10:56 AM 36.9 °F 28.2 °F 34.9 °F 93% 29.63 in 4.0 mi NNW 13.8 mph - 0.04 in Rain Light Rain
11:56 AM 36.0 °F 27.5 °F 34.9 °F 96% 29.68 in 4.0 mi NW 12.7 mph - 0.01 in Rain Light Rain
12:56 PM 36.0 °F 25.0 °F 34.0 °F 93% 29.70 in 6.0 mi NW 20.7 mph - 0.01 in Rain Light Rain
1:39 PM 33.8 °F 22.8 °F 32.0 °F 93% 29.73 in 1.5 mi NNW 18.4 mph - 0.00 in Snow Light Snow
1:56 PM 32.9 °F 22.8 °F 32.0 °F 96% 29.73 in 2.0 mi NNW 15.0 mph - 0.00 in Snow Light Snow
2:56 PM 31.1 °F 21.4 °F 30.0 °F 96% 29.77 in 0.8 mi NNW 12.7 mph 20.7 mph 0.00 in Snow Light Snow
3:56 PM 31.1 °F 21.4 °F 30.0 °F 96% 29.79 in 0.8 mi NNW 12.7 mph - 0.00 in Snow Light Snow
4:03 PM 30.2 °F 19.8 °F 30.2 °F 100% 29.78 in 2.0 mi NW 13.8 mph - 0.00 in Snow Light Snow
4:56 PM 31.1 °F 21.9 °F 30.0 °F 96% 29.83 in 2.0 mi NW 11.5 mph - 0.00 in Snow Light Snow
5:13 PM 30.2 °F 21.3 °F 28.4 °F 93% 29.82 in 4.0 mi NW 10.4 mph - 0.00 in Snow Light Snow
5:56 PM 31.1 °F 20.9 °F 28.0 °F 88% 29.85 in 10.0 mi NNW 13.8 mph 20.7 mph 0.00 in Snow Light Snow
6:56 PM 30.0 °F 19.1 °F 28.0 °F 92% 29.90 in 3.0 mi NW 15.0 mph - 0.00 in Snow Light Snow
7:01 PM 30.2 °F 18.9 °F 28.4 °F 93% 29.86 in 0.8 mi NW 16.1 mph - 0.00 in Snow Light Snow
7:56 PM 29.1 °F 17.5 °F 27.1 °F 92% 29.94 in 3.0 mi NW 16.1 mph 19.6 mph 0.00 in Snow Light Snow
8:56 PM 29.1 °F 16.7 °F 25.2 °F 85% 29.99 in 7.0 mi NNW 18.4 mph 23.0 mph 0.00 in Snow Light Snow
9:49 PM 28.4 °F 14.1 °F 21.2 °F 74% 30.00 in 10.0 mi NW 24.2 mph 27.6 mph 0.00 in   Overcast
9:56 PM 28.0 °F 14.6 °F 21.0 °F 75% 30.04 in 10.0 mi NW 20.7 mph 25.3 mph 0.00 in   Overcast
10:56 PM 27.1 °F 14.9 °F 19.0 °F 72% 30.08 in 10.0 mi NW 16.1 mph - 0.00 in Snow Light Snow
11:44 PM 26.6 °F 13.8 °F 19.4 °F 74% 30.05 in 10.0 mi NW 17.3 mph 27.6 mph 0.00 in Snow Light Snow
11:56 PM 25.2 °F 11.6 °F 18.1 °F 75% 30.10 in 10.0 mi NW 18.4 mph 27.6 mph 0.00 in Snow Light Snow